Overview Statistics Trail Chart Weather Telemetry Raw packets
 

This is the latest recevied weather packets stored in our database for station/object EA1IDU-12. If no packets are shown the sender has not sent any weather packets the latest 10 day(s).

<< 24 25 26 27 28 29 30 >>
Time Temp. Humidity Pressure Rain* Wind** Luminosity Snow
1788044112 15.56° C 48% 1028.9 hPa - - - -
1788043212 16.11° C 48% 1028.9 hPa - - - -
1788042312 16.11° C 47% 1028.9 hPa - - - -
1788041729 16.67° C 46% 1028.9 hPa - - - -
1788040511 17.22° C 46% 1028.9 hPa - - - -
1788039611 17.22° C 45% 1028.8 hPa - - - -
1788038711 17.22° C 44% 1028.7 hPa - - - -
1788037811 16.67° C 44% 1028.8 hPa - - - -
1788036911 17.22° C 43% 1028.7 hPa - - - -
1788036011 17.22° C 41% 1028.5 hPa - - - -
1788035110 17.78° C 41% 1028.5 hPa - - - -
1788034210 18.33° C 41% 1028.4 hPa - - - -
1788033310 18.89° C 40% 1028.2 hPa - - - -
1788032410 19.44° C 40% 1028.1 hPa - - - -
1788031510 20° C 38% 1028 hPa - - - -
1788030610 21.11° C 37% 1027.8 hPa - - - -
1788029710 21.67° C 36% 1027.8 hPa - - - -
1788028935 22.78° C 36% 1027.9 hPa - - - -
1788027909 23.89° C 34% 1027.8 hPa - - - -
1788027009 26.11° C 32% 1027.8 hPa - - - -
1788026115 28.33° C 30% 1027.8 hPa - - - -
1788025209 28.89° C 29% 1027.8 hPa - - - -
1788024309 28.89° C 29% 1027.8 hPa - - - -
1788023408 29.44° C 29% 1027.8 hPa - - - -
1788022699 30° C 29% 1027.8 hPa - - - -

* Rain since midnight (hover to see other rain measurements)
** Current wind speed in m/s (hover to see current wind gust speed)